Year,Month,Day,Hour,Minute,Value (Times are PST for temperature in C)
2008,05,17,00,00,15.00
2008,05,17,00,01,15.00
2008,05,17,00,02,15.00
2008,05,17,00,03,15.00
2008,05,17,00,04,14.90
2008,05,17,00,05,14.90
2008,05,17,00,06,14.80
2008,05,17,00,07,14.80
2008,05,17,00,08,14.80
2008,05,17,00,09,14.90
2008,05,17,00,10,14.90
2008,05,17,00,11,14.90
2008,05,17,00,12,14.90
2008,05,17,00,13,14.90
2008,05,17,00,14,14.90
2008,05,17,00,15,15.00
2008,05,17,00,16,15.00
2008,05,17,00,17,15.00
2008,05,17,00,18,15.00
2008,05,17,00,19,15.00
2008,05,17,00,20,15.00
2008,05,17,00,21,15.00
2008,05,17,00,22,15.00
2008,05,17,00,23,15.00
2008,05,17,00,24,15.00
2008,05,17,00,25,15.00
2008,05,17,00,26,15.00
2008,05,17,00,27,15.00
2008,05,17,00,28,15.00
2008,05,17,00,29,15.00
2008,05,17,00,30,15.00
2008,05,17,00,31,15.00
2008,05,17,00,32,15.00
2008,05,17,00,33,15.00
2008,05,17,00,34,15.00
2008,05,17,00,35,15.00
2008,05,17,00,36,15.00
2008,05,17,00,37,15.00
2008,05,17,00,38,15.00
2008,05,17,00,39,15.00
2008,05,17,00,40,15.00
2008,05,17,00,41,15.00
2008,05,17,00,42,15.00
2008,05,17,00,43,15.00
2008,05,17,00,44,15.00
2008,05,17,00,45,15.00
2008,05,17,00,46,15.00
2008,05,17,00,47,15.00
2008,05,17,00,48,15.00
2008,05,17,00,49,15.00
2008,05,17,00,50,15.00
2008,05,17,00,51,15.10
2008,05,17,00,52,15.10
2008,05,17,00,53,15.00
2008,05,17,00,54,15.00
2008,05,17,00,55,15.00
2008,05,17,00,56,15.00
2008,05,17,00,57,15.00
2008,05,17,00,58,15.00
2008,05,17,00,59,15.00
2008,05,17,01,00,15.00
2008,05,17,01,01,15.00
2008,05,17,01,02,15.00
2008,05,17,01,03,15.00
2008,05,17,01,04,15.00
2008,05,17,01,05,15.00
2008,05,17,01,06,15.00
2008,05,17,01,07,15.00
2008,05,17,01,08,15.00
2008,05,17,01,09,14.90
2008,05,17,01,10,14.90
2008,05,17,01,11,14.90
2008,05,17,01,12,14.90
2008,05,17,01,13,14.80
2008,05,17,01,14,14.80
2008,05,17,01,15,14.80
2008,05,17,01,16,14.80
2008,05,17,01,17,14.90
2008,05,17,01,18,14.90
2008,05,17,01,19,14.90
2008,05,17,01,20,14.90
2008,05,17,01,21,14.90
2008,05,17,01,22,14.90
2008,05,17,01,23,14.90
2008,05,17,01,24,14.90
2008,05,17,01,25,14.90
2008,05,17,01,26,14.90
2008,05,17,01,27,14.80
2008,05,17,01,28,14.80
2008,05,17,01,29,14.80
2008,05,17,01,30,14.80
2008,05,17,01,31,14.80
2008,05,17,01,32,14.80
2008,05,17,01,33,14.80
2008,05,17,01,34,14.80
2008,05,17,01,35,14.80
2008,05,17,01,36,14.80
2008,05,17,01,37,14.80
2008,05,17,01,38,14.80
2008,05,17,01,39,14.80
2008,05,17,01,40,14.70
2008,05,17,01,41,14.70
2008,05,17,01,42,14.70
2008,05,17,01,43,14.70
2008,05,17,01,44,14.60
2008,05,17,01,45,14.60
2008,05,17,01,46,14.60
2008,05,17,01,47,14.50
2008,05,17,01,48,14.50
2008,05,17,01,49,14.50
2008,05,17,01,50,14.40
2008,05,17,01,51,14.40
2008,05,17,01,52,14.40
2008,05,17,01,53,14.40
2008,05,17,01,54,14.40
2008,05,17,01,55,14.40
2008,05,17,01,56,14.50
2008,05,17,01,57,14.50
2008,05,17,01,58,14.60
2008,05,17,01,59,14.60
2008,05,17,02,00,14.60
2008,05,17,02,01,14.60
2008,05,17,02,02,14.60
2008,05,17,02,03,14.60
2008,05,17,02,04,14.60
2008,05,17,02,05,14.60
2008,05,17,02,06,14.60
2008,05,17,02,07,14.60
2008,05,17,02,08,14.60
2008,05,17,02,09,14.60
2008,05,17,02,10,14.70
2008,05,17,02,11,14.70
2008,05,17,02,12,14.70
2008,05,17,02,13,14.80
2008,05,17,02,14,14.80
2008,05,17,02,15,15.00
2008,05,17,02,16,15.00
2008,05,17,02,17,15.00
2008,05,17,02,18,15.00
2008,05,17,02,19,15.00
2008,05,17,02,20,15.00
2008,05,17,02,21,15.00
2008,05,17,02,22,15.00
2008,05,17,02,23,15.00
2008,05,17,02,24,15.00
2008,05,17,02,25,15.00
2008,05,17,02,26,15.00
2008,05,17,02,27,15.00
2008,05,17,02,28,15.00
2008,05,17,02,29,15.00
2008,05,17,02,30,15.00
2008,05,17,02,31,15.00
2008,05,17,02,32,15.00
2008,05,17,02,33,15.00
2008,05,17,02,34,15.00
2008,05,17,02,35,15.00
2008,05,17,02,36,15.00
2008,05,17,02,37,15.00
2008,05,17,02,38,14.90
2008,05,17,02,39,14.90
2008,05,17,02,40,15.00
2008,05,17,02,41,15.00
2008,05,17,02,42,15.00
2008,05,17,02,43,15.00
2008,05,17,02,44,15.00
2008,05,17,02,45,15.00
2008,05,17,02,46,15.00
2008,05,17,02,47,15.00
2008,05,17,02,48,15.00
2008,05,17,02,49,15.00
2008,05,17,02,50,15.00
2008,05,17,02,51,15.00
2008,05,17,02,52,15.00
2008,05,17,02,53,15.00
2008,05,17,02,54,15.00
2008,05,17,02,55,15.00
2008,05,17,02,56,15.00
2008,05,17,02,57,15.00
2008,05,17,02,58,15.00
2008,05,17,02,59,15.10
2008,05,17,03,00,15.10
2008,05,17,03,01,15.20
2008,05,17,03,02,15.20
2008,05,17,03,03,15.20
2008,05,17,03,04,15.30
2008,05,17,03,05,15.30
2008,05,17,03,06,15.40
2008,05,17,03,07,15.40
2008,05,17,03,08,15.40
2008,05,17,03,09,15.50
2008,05,17,03,10,15.40
2008,05,17,03,11,15.50
2008,05,17,03,12,15.40
2008,05,17,03,13,15.40
2008,05,17,03,14,15.40
2008,05,17,03,15,15.40
2008,05,17,03,16,15.30
2008,05,17,03,17,15.30
2008,05,17,03,18,15.20
2008,05,17,03,19,15.20
2008,05,17,03,20,15.20
2008,05,17,03,21,15.10
2008,05,17,03,22,15.10
2008,05,17,03,23,15.10
2008,05,17,03,24,15.00
2008,05,17,03,25,15.00
2008,05,17,03,26,15.00
2008,05,17,03,27,15.00
2008,05,17,03,28,15.00
2008,05,17,03,29,15.00
2008,05,17,03,30,15.00
2008,05,17,03,31,15.00
2008,05,17,03,32,15.00
2008,05,17,03,33,15.00
2008,05,17,03,34,15.00
2008,05,17,03,35,15.00
2008,05,17,03,36,15.00
2008,05,17,03,37,15.00
2008,05,17,03,38,15.00
2008,05,17,03,39,15.00
2008,05,17,03,40,15.00
2008,05,17,03,41,15.00
2008,05,17,03,42,15.00
2008,05,17,03,43,15.00
2008,05,17,03,44,15.00
2008,05,17,03,45,15.00
2008,05,17,03,46,15.00
2008,05,17,03,47,15.00
2008,05,17,03,48,15.00
2008,05,17,03,49,15.00
2008,05,17,03,50,15.00
2008,05,17,03,51,15.00
2008,05,17,03,52,15.00
2008,05,17,03,53,15.00
2008,05,17,03,54,15.00
2008,05,17,03,55,15.10
2008,05,17,03,56,15.10
2008,05,17,03,57,15.10
2008,05,17,03,58,15.10
2008,05,17,03,59,15.10
2008,05,17,04,00,15.00
2008,05,17,04,01,15.00
2008,05,17,04,02,15.00
2008,05,17,04,03,15.00
2008,05,17,04,04,15.00
2008,05,17,04,05,15.00
2008,05,17,04,06,15.00
2008,05,17,04,07,15.00
2008,05,17,04,08,14.90
2008,05,17,04,09,14.80
2008,05,17,04,10,14.80
2008,05,17,04,11,14.80
2008,05,17,04,12,14.70
2008,05,17,04,13,14.70
2008,05,17,04,14,14.70
2008,05,17,04,15,14.60
2008,05,17,04,16,14.60
2008,05,17,04,17,14.50
2008,05,17,04,18,14.50
2008,05,17,04,19,14.40
2008,05,17,04,20,14.40
2008,05,17,04,21,14.30
2008,05,17,04,22,14.30
2008,05,17,04,23,14.30
2008,05,17,04,24,14.30
2008,05,17,04,25,14.30
2008,05,17,04,26,14.30
2008,05,17,04,27,14.30
2008,05,17,04,28,14.30
2008,05,17,04,29,14.20
2008,05,17,04,30,14.20
2008,05,17,04,31,14.20
2008,05,17,04,32,14.20
2008,05,17,04,33,14.20
2008,05,17,04,34,14.10
2008,05,17,04,35,14.10
2008,05,17,04,36,14.10
2008,05,17,04,37,14.10
2008,05,17,04,38,14.10
2008,05,17,04,39,14.00
2008,05,17,04,40,14.00
2008,05,17,04,41,13.90
2008,05,17,04,42,13.90
2008,05,17,04,43,13.90
2008,05,17,04,44,13.90
2008,05,17,04,45,13.80
2008,05,17,04,46,13.80
2008,05,17,04,47,13.80
2008,05,17,04,48,13.80
2008,05,17,04,49,13.80
2008,05,17,04,50,13.80
2008,05,17,04,51,13.80
2008,05,17,04,52,13.70
2008,05,17,04,53,13.70
2008,05,17,04,54,13.70
2008,05,17,04,55,13.70
2008,05,17,04,56,13.70
2008,05,17,04,57,13.70
2008,05,17,04,58,13.70
2008,05,17,04,59,13.60
2008,05,17,05,00,13.60
2008,05,17,05,01,13.60
2008,05,17,05,02,13.60
2008,05,17,05,03,13.60
2008,05,17,05,04,13.60
2008,05,17,05,05,13.50
2008,05,17,05,06,13.50
2008,05,17,05,07,13.50
2008,05,17,05,08,13.50
2008,05,17,05,09,13.50
2008,05,17,05,10,13.40
2008,05,17,05,11,13.40
2008,05,17,05,12,13.40
2008,05,17,05,13,13.40
2008,05,17,05,14,13.40
2008,05,17,05,15,13.40
2008,05,17,05,16,13.40
2008,05,17,05,17,13.40
2008,05,17,05,18,13.40
2008,05,17,05,19,13.40
2008,05,17,05,20,13.40
2008,05,17,05,21,13.50
2008,05,17,05,22,13.50
2008,05,17,05,23,13.50
2008,05,17,05,24,13.50
2008,05,17,05,25,13.60
2008,05,17,05,26,13.60
2008,05,17,05,27,13.60
2008,05,17,05,28,13.60
2008,05,17,05,29,13.60
2008,05,17,05,30,13.60
2008,05,17,05,31,13.60
2008,05,17,05,32,13.60
2008,05,17,05,33,13.60
2008,05,17,05,34,13.60
2008,05,17,05,35,13.60
2008,05,17,05,36,13.60
2008,05,17,05,37,13.60
2008,05,17,05,38,13.60
2008,05,17,05,39,13.70
2008,05,17,05,40,13.70
2008,05,17,05,41,13.70
2008,05,17,05,42,13.70
2008,05,17,05,43,13.70
2008,05,17,05,44,13.70
2008,05,17,05,45,13.80
2008,05,17,05,46,13.80
2008,05,17,05,47,13.80
2008,05,17,05,48,13.80
2008,05,17,05,49,13.80
2008,05,17,05,50,13.80
2008,05,17,05,51,13.80
2008,05,17,05,52,13.80
2008,05,17,05,53,13.90
2008,05,17,05,54,13.90
2008,05,17,05,55,13.90
2008,05,17,05,56,13.90
2008,05,17,05,57,13.90
2008,05,17,05,58,13.90
2008,05,17,05,59,13.80
2008,05,17,06,00,13.80
2008,05,17,06,01,13.80
2008,05,17,06,02,13.80
2008,05,17,06,03,13.80
2008,05,17,06,04,13.80
2008,05,17,06,05,13.70
2008,05,17,06,06,13.70
2008,05,17,06,07,13.70
2008,05,17,06,08,13.70
2008,05,17,06,09,13.70
2008,05,17,06,10,13.70
2008,05,17,06,11,13.70
2008,05,17,06,12,13.70
2008,05,17,06,13,13.70
2008,05,17,06,14,13.70
2008,05,17,06,15,13.70
2008,05,17,06,16,13.80
2008,05,17,06,17,13.80
2008,05,17,06,18,13.80
2008,05,17,06,19,13.80
2008,05,17,06,20,13.80
2008,05,17,06,21,13.80
2008,05,17,06,22,13.80
2008,05,17,06,23,13.80
2008,05,17,06,24,13.80
2008,05,17,06,25,13.80
2008,05,17,06,26,13.80
2008,05,17,06,27,13.80
2008,05,17,06,28,13.80
2008,05,17,06,29,13.80
2008,05,17,06,30,13.80
2008,05,17,06,31,13.80
2008,05,17,06,32,13.80
2008,05,17,06,33,13.80
2008,05,17,06,34,13.80
2008,05,17,06,35,13.80
2008,05,17,06,36,13.90
2008,05,17,06,37,13.90
2008,05,17,06,38,13.90
2008,05,17,06,39,13.90
2008,05,17,06,40,13.90
2008,05,17,06,41,13.90
2008,05,17,06,42,13.90
2008,05,17,06,43,13.90
2008,05,17,06,44,14.00
2008,05,17,06,45,14.00
2008,05,17,06,46,14.10
2008,05,17,06,47,14.20
2008,05,17,06,48,14.30
2008,05,17,06,49,14.40
2008,05,17,06,50,14.50
2008,05,17,06,51,14.60
2008,05,17,06,52,14.70
2008,05,17,06,53,14.80
2008,05,17,06,54,14.90
2008,05,17,06,55,15.00
2008,05,17,06,56,15.00
2008,05,17,06,57,15.00
2008,05,17,06,58,15.00
2008,05,17,06,59,15.00
2008,05,17,07,00,15.00
2008,05,17,07,01,15.00
2008,05,17,07,02,15.00
2008,05,17,07,03,15.00
2008,05,17,07,04,15.00
2008,05,17,07,05,15.00
2008,05,17,07,06,15.00
2008,05,17,07,07,15.00
2008,05,17,07,08,15.00
2008,05,17,07,09,15.00
2008,05,17,07,10,15.10
2008,05,17,07,11,15.20
2008,05,17,07,12,15.30
2008,05,17,07,13,15.30
2008,05,17,07,14,15.50
2008,05,17,07,15,15.60
2008,05,17,07,16,15.70
2008,05,17,07,17,15.80
2008,05,17,07,18,15.90
2008,05,17,07,19,16.00
2008,05,17,07,20,16.10
2008,05,17,07,21,16.30
2008,05,17,07,22,16.30
2008,05,17,07,23,16.40
2008,05,17,07,24,16.40
2008,05,17,07,25,16.40
2008,05,17,07,26,16.40
2008,05,17,07,27,16.40
2008,05,17,07,28,16.40
2008,05,17,07,29,16.40
2008,05,17,07,30,16.40
2008,05,17,07,31,16.40
2008,05,17,07,32,16.40
2008,05,17,07,33,16.50
2008,05,17,07,34,16.50
2008,05,17,07,35,16.50
2008,05,17,07,36,16.50
2008,05,17,07,37,16.60
2008,05,17,07,38,16.60
2008,05,17,07,39,16.60
2008,05,17,07,40,16.60
2008,05,17,07,41,16.60
2008,05,17,07,42,16.60
2008,05,17,07,43,16.60
2008,05,17,07,44,16.70
2008,05,17,07,45,16.70
2008,05,17,07,46,16.80
2008,05,17,07,47,16.80
2008,05,17,07,48,16.90
2008,05,17,07,49,17.00
2008,05,17,07,50,17.10
2008,05,17,07,51,17.20
2008,05,17,07,52,17.30
2008,05,17,07,53,17.40
2008,05,17,07,54,17.50
2008,05,17,07,55,17.50
2008,05,17,07,56,17.60
2008,05,17,07,57,17.70
2008,05,17,07,58,17.80
2008,05,17,07,59,17.90
2008,05,17,08,00,18.00
2008,05,17,08,01,18.10
2008,05,17,08,02,18.20
2008,05,17,08,03,18.30
2008,05,17,08,04,18.40
2008,05,17,08,05,18.50
2008,05,17,08,06,18.60
2008,05,17,08,07,18.60
2008,05,17,08,08,18.70
2008,05,17,08,09,18.70
2008,05,17,08,10,18.80
2008,05,17,08,11,18.80
2008,05,17,08,12,18.80
2008,05,17,08,13,18.90
2008,05,17,08,14,18.90
2008,05,17,08,15,19.00
2008,05,17,08,16,19.00
2008,05,17,08,17,19.00
2008,05,17,08,18,19.10
2008,05,17,08,19,19.10
2008,05,17,08,20,19.10
2008,05,17,08,21,19.10
2008,05,17,08,22,19.10
2008,05,17,08,23,19.10
2008,05,17,08,24,19.10
2008,05,17,08,25,19.10
2008,05,17,08,26,19.10
2008,05,17,08,27,19.10
2008,05,17,08,28,19.10
2008,05,17,08,29,19.20
2008,05,17,08,30,19.20
2008,05,17,08,31,19.20
2008,05,17,08,32,19.30
2008,05,17,08,33,19.30
2008,05,17,08,34,19.30
2008,05,17,08,35,19.30
2008,05,17,08,36,19.30
2008,05,17,08,37,19.30
2008,05,17,08,38,19.30
2008,05,17,08,39,19.20
2008,05,17,08,40,19.20
2008,05,17,08,41,19.20
2008,05,17,08,42,19.20
2008,05,17,08,43,19.10
2008,05,17,08,44,19.10
2008,05,17,08,45,19.10
2008,05,17,08,46,19.10
2008,05,17,08,47,19.00
2008,05,17,08,48,19.00
2008,05,17,08,49,19.00
2008,05,17,08,50,19.00
2008,05,17,08,51,19.00
2008,05,17,08,52,19.00
2008,05,17,08,53,19.00
2008,05,17,08,54,18.90
2008,05,17,08,55,18.90
2008,05,17,08,56,18.90
2008,05,17,08,57,18.90
2008,05,17,08,58,18.90
2008,05,17,08,59,18.90
2008,05,17,09,00,18.90
2008,05,17,09,01,18.90
2008,05,17,09,02,18.90
2008,05,17,09,03,18.90
2008,05,17,09,04,18.90
2008,05,17,09,05,18.90
2008,05,17,09,06,18.80
2008,05,17,09,07,18.80
2008,05,17,09,08,18.80
2008,05,17,09,09,18.80
2008,05,17,09,10,18.80
2008,05,17,09,11,18.80
2008,05,17,09,12,18.80
2008,05,17,09,13,18.80
2008,05,17,09,14,18.80
2008,05,17,09,15,18.80
2008,05,17,09,16,18.80
2008,05,17,09,17,18.80
2008,05,17,09,18,18.80
2008,05,17,09,19,18.90
2008,05,17,09,20,18.90
2008,05,17,09,21,19.00
2008,05,17,09,22,19.00
2008,05,17,09,23,19.10
2008,05,17,09,24,19.10
2008,05,17,09,25,19.10
2008,05,17,09,26,19.10
2008,05,17,09,27,19.10
2008,05,17,09,28,19.20
2008,05,17,09,29,19.20
2008,05,17,09,30,19.20
2008,05,17,09,31,19.30
2008,05,17,09,32,19.30
2008,05,17,09,33,19.30
2008,05,17,09,34,19.30
2008,05,17,09,35,19.40
2008,05,17,09,36,19.40
2008,05,17,09,37,19.40
2008,05,17,09,38,19.50
2008,05,17,09,39,19.50
2008,05,17,09,40,19.60
2008,05,17,09,41,19.70
2008,05,17,09,42,19.70
2008,05,17,09,43,19.80
2008,05,17,09,44,19.90
2008,05,17,09,45,19.90
2008,05,17,09,46,20.00
2008,05,17,09,47,20.00
2008,05,17,09,48,20.10
2008,05,17,09,49,20.10
2008,05,17,09,50,20.10
2008,05,17,09,51,20.10
2008,05,17,09,52,20.10
2008,05,17,09,53,20.20
2008,05,17,09,54,20.20
2008,05,17,09,55,20.30
2008,05,17,09,56,20.30
2008,05,17,09,57,20.40
2008,05,17,09,58,20.50
2008,05,17,09,59,20.60
2008,05,17,10,00,20.60
2008,05,17,10,01,20.70
2008,05,17,10,02,20.80
2008,05,17,10,03,20.80
2008,05,17,10,04,20.90
2008,05,17,10,05,20.90
2008,05,17,10,06,21.00
2008,05,17,10,07,21.00
2008,05,17,10,08,21.00
2008,05,17,10,09,21.00
2008,05,17,10,10,21.00
2008,05,17,10,11,21.00
2008,05,17,10,12,21.00
2008,05,17,10,13,20.90
2008,05,17,10,14,20.90
2008,05,17,10,15,20.80
2008,05,17,10,16,20.80
2008,05,17,10,17,20.80
2008,05,17,10,18,20.80
2008,05,17,10,19,20.90
2008,05,17,10,20,20.90
2008,05,17,10,21,21.00
2008,05,17,10,22,21.10
2008,05,17,10,23,21.20
2008,05,17,10,24,21.20
2008,05,17,10,25,21.20
2008,05,17,10,26,21.20
2008,05,17,10,27,21.30
2008,05,17,10,28,21.30
2008,05,17,10,29,21.30
2008,05,17,10,30,21.40
2008,05,17,10,31,21.40
2008,05,17,10,32,21.40
2008,05,17,10,33,21.40
2008,05,17,10,34,21.40
2008,05,17,10,35,21.50
2008,05,17,10,36,21.50
2008,05,17,10,37,21.60
2008,05,17,10,38,21.60
2008,05,17,10,39,21.60
2008,05,17,10,40,21.60
2008,05,17,10,41,21.70
2008,05,17,10,42,21.70
2008,05,17,10,43,21.80
2008,05,17,10,44,21.80
2008,05,17,10,45,21.80
2008,05,17,10,46,21.80
2008,05,17,10,47,21.90
2008,05,17,10,48,22.00
2008,05,17,10,49,22.00
2008,05,17,10,50,22.00
2008,05,17,10,51,21.90
2008,05,17,10,52,22.00
2008,05,17,10,53,22.00
2008,05,17,10,54,22.00
2008,05,17,10,55,22.10
2008,05,17,10,56,22.10
2008,05,17,10,57,22.10
2008,05,17,10,58,22.10
2008,05,17,10,59,22.10
2008,05,17,11,00,22.10
2008,05,17,11,01,22.10
2008,05,17,11,02,22.10
2008,05,17,11,03,22.10
2008,05,17,11,04,22.10
2008,05,17,11,05,22.10
2008,05,17,11,06,22.10
2008,05,17,11,07,22.10
2008,05,17,11,08,22.10
2008,05,17,11,09,22.00
2008,05,17,11,10,22.00
2008,05,17,11,11,22.00
2008,05,17,11,12,21.90
2008,05,17,11,13,21.90
2008,05,17,11,14,21.90
2008,05,17,11,15,21.90
2008,05,17,11,16,21.90
2008,05,17,11,17,21.90
2008,05,17,11,18,21.90
2008,05,17,11,19,21.90
2008,05,17,11,20,21.90
2008,05,17,11,21,22.00
2008,05,17,11,22,22.00
2008,05,17,11,23,22.00
2008,05,17,11,24,22.10
2008,05,17,11,25,22.10
2008,05,17,11,26,22.10
2008,05,17,11,27,22.00
2008,05,17,11,28,21.90
2008,05,17,11,29,21.80
2008,05,17,11,30,21.80
2008,05,17,11,31,21.70
2008,05,17,11,32,21.70
2008,05,17,11,33,21.70
2008,05,17,11,34,21.70
2008,05,17,11,35,21.80
2008,05,17,11,36,21.80
2008,05,17,11,37,21.80
2008,05,17,11,38,21.80
2008,05,17,11,39,21.80
2008,05,17,11,40,21.80
2008,05,17,11,41,21.90
2008,05,17,11,42,21.90
2008,05,17,11,43,22.00
2008,05,17,11,44,22.10
2008,05,17,11,45,22.20
2008,05,17,11,46,22.30
2008,05,17,11,47,22.50
2008,05,17,11,48,22.60
2008,05,17,11,49,22.60
2008,05,17,11,50,22.70
2008,05,17,11,51,22.70
2008,05,17,11,52,22.80
2008,05,17,11,53,22.80
2008,05,17,11,54,22.90
2008,05,17,11,55,22.90
2008,05,17,11,56,23.00
2008,05,17,11,57,23.10
2008,05,17,11,58,23.20
2008,05,17,11,59,23.30
2008,05,17,12,00,23.30
2008,05,17,12,01,23.30
2008,05,17,12,02,23.40
2008,05,17,12,03,23.50
2008,05,17,12,04,23.50
2008,05,17,12,05,23.60
2008,05,17,12,06,23.70
2008,05,17,12,07,23.80
2008,05,17,12,08,23.90
2008,05,17,12,09,24.00
2008,05,17,12,10,24.10
2008,05,17,12,11,24.20
2008,05,17,12,12,24.30
2008,05,17,12,13,24.40
2008,05,17,12,14,24.50
2008,05,17,12,15,24.70
2008,05,17,12,16,25.00
2008,05,17,12,17,25.10
2008,05,17,12,18,25.20
2008,05,17,12,19,25.30
2008,05,17,12,20,25.30
2008,05,17,12,21,25.30
2008,05,17,12,22,25.20
2008,05,17,12,23,25.10
2008,05,17,12,24,25.00
2008,05,17,12,25,24.90
2008,05,17,12,26,24.90
2008,05,17,12,27,25.00
2008,05,17,12,28,25.00
2008,05,17,12,29,25.10
2008,05,17,12,30,25.10
2008,05,17,12,31,25.10
2008,05,17,12,32,25.10
2008,05,17,12,33,25.20
2008,05,17,12,34,25.20
2008,05,17,12,35,25.30
2008,05,17,12,36,25.40
2008,05,17,12,37,25.40
2008,05,17,12,38,25.50
2008,05,17,12,39,25.50
2008,05,17,12,40,25.40
2008,05,17,12,41,25.40
2008,05,17,12,42,25.20
2008,05,17,12,43,25.10
2008,05,17,12,44,24.90
2008,05,17,12,45,24.90
2008,05,17,12,46,24.80
2008,05,17,12,47,24.80
2008,05,17,12,48,24.70
2008,05,17,12,49,24.70
2008,05,17,12,50,24.80
2008,05,17,12,51,24.80
2008,05,17,12,52,24.90
2008,05,17,12,53,24.90
2008,05,17,12,54,25.00
2008,05,17,12,55,25.10
2008,05,17,12,56,25.20
2008,05,17,12,57,25.30
2008,05,17,12,58,25.40
2008,05,17,12,59,25.50
2008,05,17,13,00,25.60
2008,05,17,13,01,25.60
2008,05,17,13,02,25.70
2008,05,17,13,03,25.70
2008,05,17,13,04,25.80
2008,05,17,13,05,25.80
2008,05,17,13,06,25.80
2008,05,17,13,07,25.80
2008,05,17,13,08,25.80
2008,05,17,13,09,25.90
2008,05,17,13,10,25.90
2008,05,17,13,11,26.00
2008,05,17,13,12,26.10
2008,05,17,13,13,26.20
2008,05,17,13,14,26.30
2008,05,17,13,15,26.40
2008,05,17,13,16,26.30
2008,05,17,13,17,26.30
2008,05,17,13,18,26.20
2008,05,17,13,19,26.20
2008,05,17,13,20,26.20
2008,05,17,13,21,26.10
2008,05,17,13,22,26.00
2008,05,17,13,23,25.90
2008,05,17,13,24,25.90
2008,05,17,13,25,25.90
2008,05,17,13,26,25.70
2008,05,17,13,27,25.70
2008,05,17,13,28,25.70
2008,05,17,13,29,25.70
2008,05,17,13,30,25.60
2008,05,17,13,31,25.60
2008,05,17,13,32,25.60
2008,05,17,13,33,25.60
2008,05,17,13,34,25.70
2008,05,17,13,35,25.80
2008,05,17,13,36,25.80
2008,05,17,13,37,25.70
2008,05,17,13,38,25.60
2008,05,17,13,39,25.60
2008,05,17,13,40,25.70
2008,05,17,13,41,25.70
2008,05,17,13,42,25.70
2008,05,17,13,43,25.70
2008,05,17,13,44,25.70
2008,05,17,13,45,25.80
2008,05,17,13,46,25.90
2008,05,17,13,47,25.90
2008,05,17,13,48,25.90
2008,05,17,13,49,25.90
2008,05,17,13,50,26.00
2008,05,17,13,51,26.20
2008,05,17,13,52,26.20
2008,05,17,13,53,26.30
2008,05,17,13,54,26.40
2008,05,17,13,55,26.40
2008,05,17,13,56,26.50
2008,05,17,13,57,26.60
2008,05,17,13,58,26.70
2008,05,17,13,59,26.60
2008,05,17,14,00,26.60
2008,05,17,14,01,26.50
2008,05,17,14,02,26.50
2008,05,17,14,03,26.40
2008,05,17,14,04,26.40
2008,05,17,14,05,26.40
2008,05,17,14,06,26.40
2008,05,17,14,07,26.40
2008,05,17,14,08,26.40
2008,05,17,14,09,26.40
2008,05,17,14,10,26.40
2008,05,17,14,11,26.40
2008,05,17,14,12,26.40
2008,05,17,14,13,26.40
2008,05,17,14,14,26.40
2008,05,17,14,15,26.50
2008,05,17,14,16,26.40
2008,05,17,14,17,26.30
2008,05,17,14,18,26.20
2008,05,17,14,19,26.10
2008,05,17,14,20,26.10
2008,05,17,14,21,25.90
2008,05,17,14,22,25.80
2008,05,17,14,23,25.60
2008,05,17,14,24,25.50
2008,05,17,14,25,25.40
2008,05,17,14,26,25.40
2008,05,17,14,27,25.40
2008,05,17,14,28,25.40
2008,05,17,14,29,25.50
2008,05,17,14,30,25.60
2008,05,17,14,31,25.70
2008,05,17,14,32,25.80
2008,05,17,14,33,25.90
2008,05,17,14,34,25.90
2008,05,17,14,35,26.00
2008,05,17,14,36,26.20
2008,05,17,14,37,26.30
2008,05,17,14,38,26.30
2008,05,17,14,39,26.40
2008,05,17,14,40,26.50
2008,05,17,14,41,26.60
2008,05,17,14,42,26.70
2008,05,17,14,43,26.80
2008,05,17,14,44,26.90
2008,05,17,14,45,26.90
2008,05,17,14,46,26.80
2008,05,17,14,47,26.80
2008,05,17,14,48,26.70
2008,05,17,14,49,26.70
2008,05,17,14,50,26.70
2008,05,17,14,51,26.70
2008,05,17,14,52,26.70
2008,05,17,14,53,26.60
2008,05,17,14,54,26.60
2008,05,17,14,55,26.60
2008,05,17,14,56,26.50
2008,05,17,14,57,26.50
2008,05,17,14,58,26.50
2008,05,17,14,59,26.60
2008,05,17,15,00,26.70
2008,05,17,15,01,26.60
2008,05,17,15,02,26.50
2008,05,17,15,03,26.50
2008,05,17,15,04,26.50
2008,05,17,15,05,26.50
2008,05,17,15,06,26.50
2008,05,17,15,07,26.40
2008,05,17,15,08,26.30
2008,05,17,15,09,26.30
2008,05,17,15,10,26.30
2008,05,17,15,11,26.30
2008,05,17,15,12,26.30
2008,05,17,15,13,26.30
2008,05,17,15,14,26.40
2008,05,17,15,15,26.50
2008,05,17,15,16,26.50
2008,05,17,15,17,26.60
2008,05,17,15,18,26.70
2008,05,17,15,19,26.80
2008,05,17,15,20,26.80
2008,05,17,15,21,26.80
2008,05,17,15,22,26.80
2008,05,17,15,23,26.90
2008,05,17,15,24,26.90
2008,05,17,15,25,26.80
2008,05,17,15,26,26.80
2008,05,17,15,27,26.80
2008,05,17,15,28,26.80
2008,05,17,15,29,26.90
2008,05,17,15,30,26.90
2008,05,17,15,31,27.00
2008,05,17,15,32,27.00
2008,05,17,15,33,27.10
2008,05,17,15,34,27.20
2008,05,17,15,35,27.30
2008,05,17,15,36,27.40
2008,05,17,15,37,27.40
2008,05,17,15,38,27.40
2008,05,17,15,39,27.30
2008,05,17,15,40,27.20
2008,05,17,15,41,27.00
2008,05,17,15,42,26.90
2008,05,17,15,43,26.80
2008,05,17,15,44,26.70
2008,05,17,15,45,26.80
2008,05,17,15,46,26.80
2008,05,17,15,47,26.80
2008,05,17,15,48,26.80
2008,05,17,15,49,26.90
2008,05,17,15,50,26.90
2008,05,17,15,51,26.90
2008,05,17,15,52,26.90
2008,05,17,15,53,26.80
2008,05,17,15,54,26.80
2008,05,17,15,55,26.80
2008,05,17,15,56,26.80
2008,05,17,15,57,26.80
2008,05,17,15,58,26.90
2008,05,17,15,59,27.10
2008,05,17,16,00,27.20
2008,05,17,16,01,27.40
2008,05,17,16,02,27.50
2008,05,17,16,03,27.70
2008,05,17,16,04,27.90
2008,05,17,16,05,28.10
2008,05,17,16,06,28.20
2008,05,17,16,07,28.40
2008,05,17,16,08,28.40
2008,05,17,16,09,28.50
2008,05,17,16,10,28.60
2008,05,17,16,11,28.60
2008,05,17,16,12,28.70
2008,05,17,16,13,28.80
2008,05,17,16,14,28.90
2008,05,17,16,15,29.00
2008,05,17,16,16,29.10
2008,05,17,16,17,29.20
2008,05,17,16,18,29.20
2008,05,17,16,19,29.20
2008,05,17,16,20,29.10
2008,05,17,16,21,29.00
2008,05,17,16,22,29.00
2008,05,17,16,23,29.10
2008,05,17,16,24,29.10
2008,05,17,16,25,29.10
2008,05,17,16,26,29.20
2008,05,17,16,27,29.30
2008,05,17,16,28,29.40
2008,05,17,16,29,29.50
2008,05,17,16,30,29.60
2008,05,17,16,31,29.60
2008,05,17,16,32,29.60
2008,05,17,16,33,29.60
2008,05,17,16,34,29.60
2008,05,17,16,35,29.60
2008,05,17,16,36,29.50
2008,05,17,16,37,29.50
2008,05,17,16,38,29.50
2008,05,17,16,39,29.50
2008,05,17,16,40,29.50
2008,05,17,16,41,29.50
2008,05,17,16,42,29.50
2008,05,17,16,43,29.50
2008,05,17,16,44,29.50
2008,05,17,16,45,29.50
2008,05,17,16,46,29.40
2008,05,17,16,47,29.40
2008,05,17,16,48,29.30
2008,05,17,16,49,29.30
2008,05,17,16,50,29.30
2008,05,17,16,51,29.30
2008,05,17,16,52,29.30
2008,05,17,16,53,29.20
2008,05,17,16,54,29.20
2008,05,17,16,55,29.30
2008,05,17,16,56,29.30
2008,05,17,16,57,29.30
2008,05,17,16,58,29.40
2008,05,17,16,59,29.50
2008,05,17,17,00,29.60
2008,05,17,17,01,29.60
2008,05,17,17,02,29.60
2008,05,17,17,03,29.70
2008,05,17,17,04,29.80
2008,05,17,17,05,29.80
2008,05,17,17,06,29.90
2008,05,17,17,07,29.80
2008,05,17,17,08,29.80
2008,05,17,17,09,29.80
2008,05,17,17,10,29.80
2008,05,17,17,11,29.80
2008,05,17,17,12,29.70
2008,05,17,17,13,29.50
2008,05,17,17,14,29.40
2008,05,17,17,15,29.30
2008,05,17,17,16,29.20
2008,05,17,17,17,29.20
2008,05,17,17,18,29.20
2008,05,17,17,19,29.10